2020-04-28 00:07:18 r, 17.17m,0000000012Hz,0000038537c,0000000.084s, 026.4C,00002195
2020-04-28 00:17:18 r, 17.46m,0000000009Hz,0000049953c,0000000.108s, 026.7C,00002195
2020-04-28 00:27:18 r, 17.50m,0000000009Hz,0000051938c,0000000.113s, 026.7C,00002195
2020-04-28 00:37:18 r, 17.96m,0000000005Hz,0000079759c,0000000.173s, 026.4C,00002195
2020-04-28 00:47:18 r, 17.27m,0000000010Hz,0000042119c,0000000.091s, 026.1C,00002195
2020-04-28 00:57:18 r, 17.39m,0000000010Hz,0000047066c,0000000.102s, 026.1C,00002195
2020-04-28 01:07:18 r, 18.00m,0000000005Hz,0000082620c,0000000.179s, 026.1C,00002195
2020-04-28 01:17:18 r, 18.23m,0000000004Hz,0000101762c,0000000.221s, 026.1C,00002195
2020-04-28 01:27:18 r, 18.27m,0000000005Hz,0000105498c,0000000.229s, 025.7C,00002195
2020-04-28 01:37:18 r, 18.01m,0000000005Hz,0000083377c,0000000.181s, 025.4C,00002195
2020-04-28 01:47:18 r, 17.83m,0000000007Hz,0000070918c,0000000.154s, 025.1C,00002195
2020-04-28 01:57:18 r, 17.73m,0000000007Hz,0000064245c,0000000.139s, 024.8C,00002195
2020-04-28 02:07:18 r, 17.44m,0000000010Hz,0000049114c,0000000.107s, 024.8C,00002195
2020-04-28 02:17:18 r, 16.32m,0000000026Hz,0000017544c,0000000.038s, 024.8C,00002195
2020-04-28 02:27:18 r, 16.14m,0000000031Hz,0000014856c,0000000.032s, 024.8C,00002195
2020-04-28 02:37:18 r, 15.78m,0000000043Hz,0000010700c,0000000.023s, 024.8C,00002195
2020-04-28 02:47:18 r, 16.07m,0000000033Hz,0000014013c,0000000.030s, 024.8C,00002195
2020-04-28 02:57:18 r, 16.13m,0000000031Hz,0000014738c,0000000.032s, 025.1C,00002195
2020-04-28 03:07:18 r, 15.82m,0000000041Hz,0000011092c,0000000.024s, 025.1C,00002195
2020-04-28 03:17:18 r, 15.68m,0000000047Hz,0000009749c,0000000.021s, 025.1C,00002195
2020-04-28 03:27:18 r, 15.67m,0000000048Hz,0000009646c,0000000.021s, 025.1C,00002195
2020-04-28 03:37:18 r, 15.53m,0000000054Hz,0000008531c,0000000.019s, 025.1C,00002195
2020-04-28 03:47:18 r, 15.51m,0000000055Hz,0000008331c,0000000.018s, 025.1C,00002195
2020-04-28 03:57:18 r, 15.57m,0000000052Hz,0000008862c,0000000.019s, 025.1C,00002195
2020-04-28 04:07:18 r, 15.57m,0000000052Hz,0000008796c,0000000.019s, 024.8C,00002195
2020-04-28 04:17:18 r, 15.61m,0000000049Hz,0000009183c,0000000.020s, 025.1C,00002195
2020-04-28 04:27:18 r, 15.50m,0000000056Hz,0000008258c,0000000.018s, 025.1C,00002195
2020-04-28 04:37:18 r, 15.82m,0000000041Hz,0000011105c,0000000.024s, 025.1C,00002195
2020-04-28 04:47:18 r, 16.17m,0000000031Hz,0000015268c,0000000.033s, 025.1C,00002195
2020-04-28 04:57:18 r, 16.18m,0000000029Hz,0000015465c,0000000.034s, 025.1C,00002195
2020-04-28 05:07:18 r, 15.89m,0000000039Hz,0000011891c,0000000.026s, 025.1C,00002195
2020-04-28 05:17:18 r, 15.93m,0000000038Hz,0000012227c,0000000.027s, 025.1C,00002195
2020-04-28 05:27:18 r, 14.77m,0000000108Hz,0000004195c,0000000.009s, 024.8C,00002195
2020-04-28 05:37:18 r, 12.95m,0000000590Hz,0000000000c,0000000.000s, 024.4C,00002195
2020-04-28 05:47:18 r, 11.14m,0000003121Hz,0000000000c,0000000.000s, 024.4C,00002195
2020-04-28 05:57:18 r, 09.17m,0000019186Hz,0000000000c,0000000.000s, 023.8C,00002195
2020-04-28 06:07:18 r, 08.70m,0000029407Hz,0000000000c,0000000.000s, 023.8C,00002195
2020-04-28 06:17:18 r, 07.80m,0000067919Hz,0000000000c,0000000.000s, 024.1C,00002195
2020-04-28 06:27:18 r, 07.62m,0000080093Hz,0000000000c,0000000.000s, 024.1C,00002195
2020-04-28 06:37:18 r, 00.00m,0000529719Hz,0000000000c,0000000.000s, 024.1C,00002195
2020-04-28 06:47:18 r, 00.00m,0000563430Hz,0000000000c,0000000.000s, 024.8C,00002195
2020-04-28 06:57:18 r, 00.00m,0000563757Hz,0000000000c,0000000.000s, 025.4C,00002195
2020-04-28 07:07:18 r, 00.00m,0000563771Hz,0000000000c,0000000.000s, 025.4C,00002195
2020-04-28 07:17:18 r, 00.00m,0000445189Hz,0000000000c,0000000.000s, 025.4C,00002195
2020-04-28 07:27:18 r, 05.95m,0000369745Hz,0000000000c,0000000.000s, 025.4C,00002195
2020-04-28 07:37:18 r, 06.10m,0000323838Hz,0000000000c,0000000.000s, 025.4C,00002195
2020-04-28 07:47:18 r, 06.24m,0000282628Hz,0000000000c,0000000.000s, 025.4C,00002195
2020-04-28 07:57:18 r, 05.97m,0000365957Hz,0000000000c,0000000.000s, 025.1C,00002195
2020-04-28 08:07:18 r, 00.00m,0000563593Hz,0000000000c,0000000.000s, 025.4C,00002195
2020-04-28 08:17:18 r, 00.00m,0000563560Hz,0000000000c,0000000.000s, 025.4C,00002195
2020-04-28 08:27:18 r, 00.00m,0000563622Hz,0000000000c,0000000.000s, 025.4C,00002195
2020-04-28 08:37:18 r, 00.00m,0000563721Hz,0000000000c,0000000.000s, 026.1C,00002195
2020-04-28 08:47:18 r, 00.00m,0000563706Hz,0000000000c,0000000.000s, 026.4C,00002195
2020-04-28 08:57:18 r, 00.00m,0000563729Hz,0000000000c,0000000.000s, 027.0C,00002195
2020-04-28 09:07:18 r, 00.00m,0000563683Hz,0000000000c,0000000.000s, 026.7C,00002195
2020-04-28 09:17:18 r, 00.00m,0000563733Hz,0000000000c,0000000.000s, 026.7C,00002195
2020-04-28 09:27:18 r, 00.00m,0000563763Hz,0000000000c,0000000.000s, 027.0C,00002195
2020-04-28 09:37:18 r, 00.00m,0000563720Hz,0000000000c,0000000.000s, 026.7C,00002195
2020-04-28 09:47:18 r, 00.00m,0000563850Hz,0000000000c,0000000.000s, 026.7C,00002195
2020-04-28 09:57:18 r, 00.00m,0000563799Hz,0000000000c,0000000.000s, 026.7C,00002195
2020-04-28 10:07:18 r, 00.00m,0000563758Hz,0000000000c,0000000.000s, 026.4C,00002195
2020-04-28 10:17:18 r, 00.00m,0000563730Hz,0000000000c,0000000.000s, 026.1C,00002195
2020-04-28 10:27:18 r, 00.00m,0000563694Hz,0000000000c,0000000.000s, 025.7C,00002195
2020-04-28 10:37:18 r, 00.00m,0000563590Hz,0000000000c,0000000.000s, 025.4C,00002195
2020-04-28 10:47:18 r, 00.00m,0000563603Hz,0000000000c,0000000.000s, 025.4C,00002195
2020-04-28 10:57:18 r, 00.00m,0000563665Hz,0000000000c,0000000.000s, 025.4C,00002195
2020-04-28 11:07:18 r, 00.00m,0000563700Hz,0000000000c,0000000.000s, 025.7C,00002195
2020-04-28 11:17:18 r, 00.00m,0000563707Hz,0000000000c,0000000.000s, 026.1C,00002195
2020-04-28 11:27:18 r, 00.00m,0000563825Hz,0000000000c,0000000.000s, 026.7C,00002195
2020-04-28 11:37:18 r, 00.00m,0000564005Hz,0000000000c,0000000.000s, 027.3C,00002195
2020-04-28 11:47:18 r, 00.00m,0000564084Hz,0000000000c,0000000.000s, 028.3C,00002195
2020-04-28 11:57:18 r, 00.00m,0000564097Hz,0000000000c,0000000.000s, 029.0C,00002195
2020-04-28 12:07:18 r, 00.00m,0000564316Hz,0000000000c,0000000.000s, 030.2C,00002195
2020-04-28 12:17:18 r, 00.00m,0000564417Hz,0000000000c,0000000.000s, 031.2C,00002195
2020-04-28 12:27:18 r, 00.00m,0000564327Hz,0000000000c,0000000.000s, 031.5C,00002195
2020-04-28 12:37:18 r, 00.00m,0000564368Hz,0000000000c,0000000.000s, 031.5C,00002195
2020-04-28 12:47:18 r, 00.00m,0000564370Hz,0000000000c,0000000.000s, 031.9C,00002195
2020-04-28 12:57:18 r, 00.00m,0000564372Hz,0000000000c,0000000.000s, 032.2C,00002195
2020-04-28 13:07:18 r, 00.00m,0000564406Hz,0000000000c,0000000.000s, 031.9C,00002195
2020-04-28 13:17:18 r, 00.00m,0000564351Hz,0000000000c,0000000.000s, 031.9C,00002195
2020-04-28 13:27:18 r, 00.00m,0000564352Hz,0000000000c,0000000.000s, 031.9C,00002195
2020-04-28 13:37:18 r, 00.00m,0000564424Hz,0000000000c,0000000.000s, 032.2C,00002195
2020-04-28 13:47:18 r, 00.00m,0000564552Hz,0000000000c,0000000.000s, 033.1C,00002195
2020-04-28 13:57:18 r, 00.00m,0000564499Hz,0000000000c,0000000.000s, 033.5C,00002195
2020-04-28 14:07:18 r, 00.00m,0000564572Hz,0000000000c,0000000.000s, 033.8C,00002195
2020-04-28 14:17:18 r, 00.00m,0000564632Hz,0000000000c,0000000.000s, 033.8C,00002195
2020-04-28 14:27:18 r, 00.00m,0000564585Hz,0000000000c,0000000.000s, 033.5C,00002195
2020-04-28 14:37:18 r, 00.00m,0000564596Hz,0000000000c,0000000.000s, 033.1C,00002195
2020-04-28 14:47:18 r, 00.00m,0000564570Hz,0000000000c,0000000.000s, 032.8C,00002195
2020-04-28 14:57:18 r, 00.00m,0000564475Hz,0000000000c,0000000.000s, 033.1C,00002195
2020-04-28 15:07:18 r, 00.00m,0000564543Hz,0000000000c,0000000.000s, 033.1C,00002195
2020-04-28 15:17:18 r, 00.00m,0000564606Hz,0000000000c,0000000.000s, 033.5C,00002195
2020-04-28 15:27:18 r, 00.00m,0000564627Hz,0000000000c,0000000.000s, 034.1C,00002195
2020-04-28 15:37:18 r, 00.00m,0000564643Hz,0000000000c,0000000.000s, 034.1C,00002195
2020-04-28 15:47:18 r, 00.00m,0000564651Hz,0000000000c,0000000.000s, 034.1C,00002195
2020-04-28 15:57:18 r, 00.00m,0000564537Hz,0000000000c,0000000.000s, 033.8C,00002195
2020-04-28 16:07:18 r, 00.00m,0000564638Hz,0000000000c,0000000.000s, 034.1C,00002195
2020-04-28 16:17:18 r, 00.00m,0000564661Hz,0000000000c,0000000.000s, 034.1C,00002195
2020-04-28 16:27:18 r, 00.00m,0000564705Hz,0000000000c,0000000.000s, 034.4C,00002195
2020-04-28 16:37:18 r, 00.00m,0000564677Hz,0000000000c,0000000.000s, 034.4C,00002195
2020-04-28 16:47:18 r, 00.00m,0000564656Hz,0000000000c,0000000.000s, 033.8C,00002195
2020-04-28 16:57:18 r, 00.00m,0000564640Hz,0000000000c,0000000.000s, 033.8C,00002195
2020-04-28 17:07:18 r, 00.00m,0000564592Hz,0000000000c,0000000.000s, 033.5C,00002195
2020-04-28 17:17:18 r, 00.00m,0000564549Hz,0000000000c,0000000.000s, 033.1C,00002195
2020-04-28 17:27:18 r, 00.00m,0000564485Hz,0000000000c,0000000.000s, 032.8C,00002195
2020-04-28 17:37:18 r, 00.00m,0000564421Hz,0000000000c,0000000.000s, 032.2C,00002195
2020-04-28 17:47:18 r, 00.00m,0000564338Hz,0000000000c,0000000.000s, 031.5C,00002195
2020-04-28 17:57:18 r, 00.00m,0000564377Hz,0000000000c,0000000.000s, 030.9C,00002195
2020-04-28 18:07:18 r, 00.00m,0000564261Hz,0000000000c,0000000.000s, 030.9C,00002195
2020-04-28 18:17:18 r, 00.00m,0000564327Hz,0000000000c,0000000.000s, 030.6C,00002195
2020-04-28 18:27:18 r, 00.00m,0000564339Hz,0000000000c,0000000.000s, 030.2C,00002195
2020-04-28 18:37:18 r, 00.00m,0000564207Hz,0000000000c,0000000.000s, 030.2C,00002195
2020-04-28 18:47:18 r, 00.00m,0000564195Hz,0000000000c,0000000.000s, 029.9C,00002195
2020-04-28 18:57:18 r, 00.00m,0000564182Hz,0000000000c,0000000.000s, 029.3C,00002195
2020-04-28 19:07:18 r, 00.00m,0000564188Hz,0000000000c,0000000.000s, 029.3C,00002195
2020-04-28 19:17:18 r, 00.00m,0000564124Hz,0000000000c,0000000.000s, 029.0C,00002195
2020-04-28 19:27:18 r, 00.00m,0000564092Hz,0000000000c,0000000.000s, 029.0C,00002195
2020-04-28 19:37:18 r, 00.00m,0000564072Hz,0000000000c,0000000.000s, 028.6C,00002195
2020-04-28 19:47:18 r, 00.00m,0000564030Hz,0000000000c,0000000.000s, 028.3C,00002195
2020-04-28 19:57:18 r, 00.00m,0000487418Hz,0000000000c,0000000.000s, 028.3C,00002195
2020-04-28 20:07:18 r, 06.26m,0000279333Hz,0000000000c,0000000.000s, 028.0C,00002195
2020-04-28 20:17:18 r, 06.40m,0000244977Hz,0000000000c,0000000.000s, 027.7C,00002195
2020-04-28 20:27:18 r, 07.11m,0000126996Hz,0000000000c,0000000.000s, 027.7C,00002195
2020-04-28 20:37:18 r, 07.73m,0000071900Hz,0000000000c,0000000.000s, 027.7C,00002195
2020-04-28 20:47:18 r, 08.53m,0000034565Hz,0000000000c,0000000.000s, 027.3C,00002195
2020-04-28 20:57:18 r, 09.95m,0000009343Hz,0000000000c,0000000.000s, 027.0C,00002195
2020-04-28 21:07:18 r, 11.66m,0000001922Hz,0000000000c,0000000.000s, 027.0C,00002195
2020-04-28 21:17:18 r, 13.34m,0000000413Hz,0000000000c,0000000.000s, 026.7C,00002195
2020-04-28 21:27:18 r, 14.60m,0000000127Hz,0000003609c,0000000.008s, 026.7C,00002195
2020-04-28 21:37:18 r, 15.25m,0000000070Hz,0000006546c,0000000.014s, 026.7C,00002195
2020-04-28 21:47:18 r, 15.50m,0000000055Hz,0000008283c,0000000.018s, 026.4C,00002195
2020-04-28 21:57:18 r, 15.66m,0000000048Hz,0000009562c,0000000.021s, 026.1C,00002195
2020-04-28 22:07:18 r, 15.64m,0000000049Hz,0000009441c,0000000.020s, 025.7C,00002195
2020-04-28 22:17:18 r, 15.53m,0000000053Hz,0000008575c,0000000.019s, 025.7C,00002195
2020-04-28 22:27:18 r, 15.52m,0000000054Hz,0000008437c,0000000.018s, 025.4C,00002195
2020-04-28 22:37:18 r, 15.65m,0000000048Hz,0000009486c,0000000.021s, 025.4C,00002195
2020-04-28 22:47:18 r, 15.73m,0000000045Hz,0000010231c,0000000.022s, 025.4C,00002195
2020-04-28 22:57:18 r, 15.72m,0000000045Hz,0000010151c,0000000.022s, 025.1C,00002195
2020-04-28 23:07:18 r, 15.62m,0000000050Hz,0000009225c,0000000.020s, 024.8C,00002195
2020-04-28 23:17:18 r, 15.64m,0000000049Hz,0000009378c,0000000.020s, 025.1C,00002195
2020-04-28 23:27:18 r, 15.69m,0000000048Hz,0000009794c,0000000.021s, 025.1C,00002195
2020-04-28 23:37:18 r, 15.57m,0000000052Hz,0000008869c,0000000.019s, 025.1C,00002195
2020-04-28 23:47:18 r, 15.47m,0000000057Hz,0000008063c,0000000.017s, 024.8C,00002195
2020-04-28 23:57:18 r, 15.57m,0000000053Hz,0000008823c,0000000.019s, 024.8C,00002195
